Flag for Spain Weather past 2 weeks in Huelva, Spain

Now
70 °F

Passing clouds.


Feels Like: 70 °F
Forecast: 60 / 77 °F
Wind: 5 mph from Southwest

Location: Rota Airport

Current Time: Sep 23, 2014 at 3:14:18 AM

Latest Report: Sep 23, 2014 at 2:00 AM


Visibility: N/A

Pressure: 30.01 "Hg

Humidity: 78%

Dew point: 63 °F

Location of HuelvaLocation

Historic Weather in Huelva — Graph

°F

Huelva temperature yesterday

Maximum temperature yesterday: 75 °F (at 1:00 PM)
Minimum temperature yesterday: 64 °F (at 7:00 AM)
Average temperature yesterday: 70 °F

Past Weeks' High & Low Weather Summary

 TemperatureHumidityPressure
High79 °F (Sep 8, 2:00 PM)94% (Sep 9, 4:00 AM)30.07 "Hg (Sep 9, 4:00 AM)
Low63 °F (Sep 9, 8:00 AM)54% (Sep 21, 1:00 PM)29.77 "Hg (Sep 16, 5:00 AM)
Average73 °F79%29.96 "Hg
* Reported Sep 8 2:00 AM — Sep 23 2:00 AM, Huelva, Weather by CustomWeather, © 2014

Note: Actual official high and low records may vary slightly from our data, if they occured in-between our weather recording intervals... More about our weather records

Advertising

Huelva weather history for previous 24 hours

 ConditionsComfort  
Time TempWeatherWind HumidityBarometerVisibility
2:00 AM
Sep 23
70 °FPassing clouds.5 mph78%30.01 "HgN/A
1:00 AM70 °FPassing clouds.5 mph78%30.01 "HgN/A
12:00 AM70 °FPassing clouds.6 mph78%30.01 "HgN/A
11:00 PM
Sep 22
72 °FPassing clouds.7 mph73%30.01 "HgN/A
10:00 PM72 °FPassing clouds.7 mph73%30.01 "HgN/A
9:00 PM72 °FPassing clouds.7 mph73%29.98 "HgN/A
8:00 PM72 °FPassing clouds.10 mph78%29.98 "HgN/A
7:00 PM73 °FPassing clouds.12 mph69%29.98 "HgN/A
6:00 PM75 °FPassing clouds.13 mph69%29.98 "HgN/A
5:00 PM75 °FPassing clouds.10 mph69%29.98 "HgN/A
4:00 PM75 °FPassing clouds.9 mph61%30.01 "HgN/A
3:00 PM72 °FPassing clouds.8 mph83%30.01 "HgN/A
2:00 PM72 °FPartly sunny.6 mph78%30.01 "HgN/A
1:00 PM75 °FPartly sunny.6 mph69%30.01 "HgN/A
12:00 PM73 °FPartly sunny.5 mph74%30.04 "HgN/A
11:00 AM72 °FScattered clouds.No wind83%30.01 "HgN/A
10:00 AM68 °FScattered clouds.5 mph88%30.01 "Hg4 mi
9:00 AM64 °FPassing clouds.No wind94%29.98 "HgN/A
8:00 AM64 °FPassing clouds.No wind88%29.98 "HgN/A
7:00 AM64 °FPassing clouds.No wind88%29.95 "HgN/A
6:00 AM66 °FPassing clouds.1 mph88%29.98 "HgN/A
5:00 AM68 °FPassing clouds.6 mph83%29.98 "HgN/A
4:00 AM68 °FPassing clouds.No wind78%29.98 "HgN/A
3:00 AM66 °FPassing clouds.3 mph88%30.01 "HgN/A
Weather by CustomWeather, © 2014

See weather overviewHow to use our weather pages